[[{"header":{"parameterUnit":"m.s-1","parameterCategory":2,"la1":30.2991,"la2":30.254,"lo1":-89.0895,"lo2":-89.0444,"dy":0.0017,"dx":0.0017,"nx":28,"ny":28,"refTime":"2023-07-29T09:00:00:Z","depth":"0","parameterNumber":2,"parameterNumberName":"U-component_of_CURRENTS"},"data":[0,0,0,0,0,0,0,0,0,0,0,0,0,0,0,0,0,0,0,0,0,0,0,0,0,0,0,0,0,0,0,0,0,0,0,0,0,0,0,0,0,0,0,0,0,0,0,0,0,0,0,0,0,0,0,0,0,0,0.21,0.2101,0,0.2132,0.2132,0.2132,0.2116,0.2115,0.2115,0.2114,0.2083,0.2083,0.2083,0,0,0,0,0,0,0,0,0,0,0,0,0,0.2012,0.2014,0.21,0.2101,0.2102,0.2132,0.2132,0.2132,0.2116,0.2115,0.2115,0.2114,0.2083,0.2083,0.2083,0,0,0,0,0,0,0,0,0,0,0,0,0,0.2046,0.2015,0.21,0.2099,0.2099,0.2132,0.2132,0.2132,0.2116,0.2115,0.2114,0.2113,0.2083,0.2083,0.2083,0.2101,0,0,0.2082,0.2082,0,0,0,0,0,0,0,0,0.2044,0.2049,0.2098,0.2099,0.2099,0.2121,0.209,0.2119,0.2117,0.2108,0.2114,0.2113,0.2092,0.2091,0.2097,0.2099,0.2098,0.2082,0.2082,0.2081,0.2081,0,0,0,0,0,0,0,0.2042,0.2048,0.2111,0.2099,0.21,0.2092,0.2095,0.2095,0.2102,0.2108,0.2108,0.2115,0.2091,0.2098,0.2096,0.2097,0.2082,0.2082,0.2081,0.2081,0.2214,0.2217,0,0,0,0,0,0,0.2044,0.2046,0.211,0.2112,0.2071,0.2094,0.2098,0.2113,0.2104,0.2102,0.2115,0.2114,0.2099,0.2097,0.2095,0.2167,0.2081,0.2081,0.2081,0.221,0.2215,0.2219,0,0,0,0,0,0,0.2042,0.205,0.2109,0.208,0.2087,0.2097,0.2114,0.2114,0.2127,0.211,0.2107,0.2128,0.2098,0.2095,0.2117,0.2163,0.2081,0.2081,0.2206,0.2212,0.2217,0.2278,0,0,0,0,0,0,0.204,0.2049,0.2061,0.2081,0.2089,0.2139,0.2115,0.2116,0.2133,0.2131,0.212,0.2116,0.2097,0.2118,0.2117,0.2161,0.208,0.2201,0.2208,0.2215,0.2271,0.2285,0.2296,0,0,0,0,0,0.2037,0.2056,0.2062,0.2069,0.2105,0.214,0.2144,0.2145,0.2135,0.215,0.215,0.2116,0.2163,0.212,0.2118,0.2163,0.2198,0.2206,0.2214,0.2265,0.2282,0.2296,0,0,0,0,0,0,0.202,0.2057,0.2063,0.2092,0.212,0.2139,0.2148,0.2156,0.2168,0.2162,0.2143,0.2141,0.2186,0.2176,0.213,0.2232,0.2183,0.2192,0.2223,0.2239,0.2251,0.2276,0.208,0,0,0,0,0,0.2025,0.2049,0.2084,0.2106,0.2119,0.2138,0.2151,0.2159,0.2173,0.2177,0.2175,0.2189,0.2222,0.2227,0.2247,0.2283,0.2367,0.2324,0.2337,0.2347,0.2373,0.2568,0.2601,0.2246,0.2246,0.2246,0,0,0.2023,0.2047,0.2059,0.2104,0.2119,0.2154,0.2142,0.217,0.2202,0.2172,0.2207,0.2227,0.2245,0.2297,0.2318,0.2288,0.2495,0.2357,0.2365,0.2386,0.2581,0.2615,0.2646,0.2252,0.2251,0.225,0,0,0.2041,0.2055,0.2086,0.2113,0.215,0.2165,0.2178,0.2211,0.2226,0.2267,0.2274,0.2338,0.2346,0.24,0.242,0.2523,0.256,0.2518,0.259,0.2779,0.281,0.2838,0.2995,0.3036,0.2519,0.2519,0.2519,0,0.204,0.2088,0.21,0.214,0.2166,0.2174,0.2219,0.2239,0.2278,0.2316,0.2285,0.2406,0.2412,0.2526,0.2559,0.2553,0.2651,0.2516,0.2796,0.2826,0.2854,0.3008,0.3053,0.2523,0.2522,0.2522,0.2522,0,0.2094,0.2125,0.2143,0.2197,0.2225,0.2261,0.2295,0.2329,0.2344,0.2382,0.249,0.2528,0.2608,0.2627,0.2611,0.281,0.2814,0.2792,0.2752,0.2893,0.3046,0.3092,0.2529,0.2527,0.2526,0.2525,0,0,0.2133,0.2173,0.2183,0.2215,0.2261,0.2296,0.2346,0.2422,0.2491,0.253,0.2649,0.272,0.2756,0.2789,0.2808,0.2957,0.3229,0.2951,0.2959,0.3096,0.3646,0.3595,0.364,0.3255,0.3263,0.3269,0.3674,0,0.2182,0.2249,0.2262,0.2331,0.2375,0.2393,0.245,0.2515,0.2571,0.2682,0.2759,0.2868,0.2811,0.2875,0.3015,0.3178,0.3353,0.3121,0.3497,0.3509,0.3439,0.3693,0.3576,0.3923,0.3719,0.3727,0.3733,0,0.2272,0.2295,0.2364,0.242,0.2442,0.2484,0.2594,0.2644,0.2778,0.2832,0.2945,0.3002,0.3202,0.3146,0.351,0.3362,0.3523,0.3644,0.3663,0.3628,0.3545,0.3751,0.4015,0.3902,0.3804,0.3798,0.3793,0,0.234,0.2388,0.244,0.2459,0.2515,0.2559,0.2594,0.2705,0.2787,0.295,0.3054,0.3239,0.3382,0.3599,0.3781,0.3693,0.4198,0.4112,0.4229,0.4225,0.4209,0.4189,0.44,0.4439,0.4438,0.4437,0.4436,0,0.2424,0.2474,0.2473,0.2508,0.2595,0.261,0.2733,0.2794,0.293,0.3051,0.3141,0.33,0.3513,0.3766,0.3911,0.4218,0.4317,0.4323,0.4364,0.4224,0.4202,0.4161,0.4064,0.4452,0.4449,0.4446,0.4443,0,0.2529,0.2517,0.2592,0.2624,0.2639,0.2709,0.2799,0.288,0.2998,0.3172,0.3236,0.3454,0.3754,0.3961,0.4353,0.4409,0.4581,0.4769,0.4561,0.4569,0.4497,0.4406,0.4487,0.4364,0.4992,0.4993,0.4995,0,0.2594,0.264,0.2683,0.2699,0.2716,0.2791,0.2836,0.2926,0.3006,0.3251,0.3345,0.3664,0.3848,0.4371,0.4572,0.488,0.4697,0.4937,0.4745,0.4557,0.449,0.4211,0.4079,0.4768,0.4768,0.4767,0.4767,0,0.2705,0.2722,0.2742,0.2786,0.282,0.2875,0.2935,0.3008,0.3108,0.3259,0.3466,0.3638,0.4082,0.4337,0.4705,0.4856,0.4668,0.4935,0.4843,0.4444,0.4064,0.3939,0.44,0.4763,0.4763,0.4764,0.4764,0.4764,0.2766,0.2805,0.2802,0.285,0.2875,0.2899,0.2923,0.2989,0.3105,0.3249,0.3463,0.3682,0.4072,0.4556,0.4671,0.479,0.4678,0.4737,0.4688,0.4456,0.4191,0.4614,0.4927,0.4928,0.4929,0.493,0.4931,0,0.2796,0.2804,0.2849,0.2853,0.2854,0.2885,0.2929,0.2923,0.2992,0.3186,0.3349,0.3736,0.4031,0.4316,0.4614,0.4574,0.4329,0.4489,0.4098,0.4015,0.4548,0.4386,0.4469,0.4469,0.4469,0.4469,0.447,0.447,0.2786,0.2799,0.2817,0.2797,0.2799,0.2761,0.2761,0.2783,0.2882,0.3051,0.3242,0.3439,0.3874,0.4253,0.4351,0.4297,0.3988,0.386,0.3796,0.4194,0.421,0.4226,0.4053,0.4065,0.4064,0.3102,0.3095,0.309]},{"header":{"parameterUnit":"m.s-1","parameterCategory":2,"la1":30.2991,"la2":30.254,"lo1":-89.0895,"lo2":-89.0444,"dy":0.0017,"dx":0.0017,"nx":28,"ny":28,"refTime":"2023-07-29T09:00:00:Z","depth":"0","parameterNumber":3,"parameterNumberName":"V-component_of_CURRENTS"},"data":[0,0,0,0,0,0,0,0,0,0,0,0,0,0,0,0,0,0,0,0,0,0,0,0,0,0,0,0,0,0,0,0,0,0,0,0,0,0,0,0,0,0,0,0,0,0,0,0,0,0,0,0,0,0,0,0,0,0,-0.0647,-0.0648,0,-0.0723,-0.0724,-0.0725,-0.0793,-0.0793,-0.0794,-0.0795,-0.088,-0.0882,-0.0884,0,0,0,0,0,0,0,0,0,0,0,0,0,-0.0583,-0.0583,-0.0647,-0.0648,-0.0649,-0.0723,-0.0724,-0.0725,-0.0793,-0.0793,-0.0794,-0.0795,-0.088,-0.0882,-0.0884,0,0,0,0,0,0,0,0,0,0,0,0,0,-0.0631,-0.0584,-0.0647,-0.0691,-0.0695,-0.0723,-0.0724,-0.0725,-0.0792,-0.0793,-0.0794,-0.0795,-0.0879,-0.0882,-0.0884,-0.0878,0,0,-0.0892,-0.0893,0,0,0,0,0,0,0,0,-0.0628,-0.0633,-0.0683,-0.0688,-0.0693,-0.0749,-0.0733,-0.0777,-0.0792,-0.0756,-0.0795,-0.0796,-0.0836,-0.0842,-0.0855,-0.0882,-0.0886,-0.0892,-0.0893,-0.0894,-0.0895,0,0,0,0,0,0,0,-0.0624,-0.063,-0.0678,-0.0684,-0.069,-0.0714,-0.0722,-0.0742,-0.079,-0.076,-0.0765,-0.0771,-0.0839,-0.0853,-0.0858,-0.0887,-0.0892,-0.0894,-0.0895,-0.0896,-0.0885,-0.0883,0,0,0,0,0,0,-0.0611,-0.0627,-0.0676,-0.068,-0.0661,-0.0714,-0.0723,-0.073,-0.079,-0.08,-0.077,-0.0774,-0.0848,-0.0855,-0.0861,-0.0804,-0.0894,-0.0897,-0.0898,-0.0886,-0.0884,-0.0882,0,0,0,0,0,0,-0.0609,-0.0614,-0.0673,-0.0655,-0.0664,-0.0714,-0.0722,-0.0731,-0.0745,-0.0798,-0.0808,-0.0773,-0.0849,-0.0857,-0.0865,-0.081,-0.0898,-0.09,-0.0889,-0.0886,-0.0883,-0.0725,0,0,0,0,0,0,-0.0607,-0.0613,-0.061,-0.0653,-0.0664,-0.0671,-0.0721,-0.0732,-0.0747,-0.0752,-0.0803,-0.0813,-0.0851,-0.086,-0.0867,-0.0815,-0.0902,-0.0891,-0.0887,-0.0884,-0.0733,-0.0718,-0.0705,0,0,0,0,0,-0.0604,-0.0585,-0.0609,-0.0615,-0.0659,-0.0669,-0.0676,-0.0717,-0.0745,-0.0736,-0.0772,-0.0811,-0.0844,-0.0861,-0.0869,-0.0817,-0.0892,-0.0888,-0.0884,-0.0739,-0.0721,-0.0705,0,0,0,0,0,0,-0.0549,-0.0591,-0.0619,-0.0613,-0.0635,-0.068,-0.0674,-0.0707,-0.073,-0.0736,-0.0793,-0.0803,-0.0789,-0.0828,-0.0846,-0.0805,-0.0872,-0.087,-0.0759,-0.0742,-0.0728,-0.0675,-0.0904,0,0,0,0,0,-0.0537,-0.0536,-0.058,-0.0572,-0.058,-0.0628,-0.0638,-0.0665,-0.0693,-0.0705,-0.0739,-0.0769,-0.0778,-0.0782,-0.0804,-0.0782,-0.0766,-0.0754,-0.0739,-0.0727,-0.069,-0.0613,-0.0587,-0.0869,-0.0869,-0.0869,0,0,-0.051,-0.0535,-0.0533,-0.056,-0.0583,-0.0569,-0.0636,-0.0638,-0.0619,-0.0709,-0.0689,-0.0725,-0.0764,-0.0737,-0.0733,-0.0762,-0.0639,-0.0722,-0.0711,-0.068,-0.0606,-0.0578,-0.0553,-0.0867,-0.0867,-0.0868,0,0,-0.0441,-0.0481,-0.0451,-0.0467,-0.0493,-0.052,-0.0516,-0.0553,-0.0562,-0.0555,-0.0604,-0.0597,-0.0632,-0.0626,-0.0634,-0.0554,-0.0572,-0.0575,-0.045,-0.0376,-0.035,-0.0328,-0.0266,-0.024,-0.056,-0.056,-0.056,0,-0.04,-0.0381,-0.044,-0.0417,-0.0412,-0.0489,-0.0445,-0.0464,-0.0496,-0.0471,-0.0527,-0.0516,-0.0565,-0.0492,-0.0473,-0.0515,-0.0484,-0.0509,-0.0352,-0.033,-0.0309,-0.0251,-0.0224,-0.0552,-0.0553,-0.0554,-0.0554,0,-0.0309,-0.0298,-0.0279,-0.0277,-0.0282,-0.0257,-0.0294,-0.0287,-0.0315,-0.0323,-0.0272,-0.0324,-0.0304,-0.0326,-0.0381,-0.0258,-0.0287,-0.0345,-0.0384,-0.027,-0.0218,-0.0192,-0.054,-0.0543,-0.0546,-0.0548,0,0,-0.0175,-0.0205,-0.0192,-0.0171,-0.0203,-0.0186,-0.0155,-0.012,-0.0058,-0.0097,0.0005,-0.003,-0.0051,-0.0059,-0.0113,-0.0064,0.0082,-0.0136,-0.0136,-0.0053,0.0256,0.0202,0.0224,0.0056,0.0062,0.0066,0.0239,0,-0.0068,-0.0003,-0.0045,0.0035,0.0069,0.0013,0.006,0.0073,0.0077,0.015,0.0122,0.0179,0.0049,0.0078,0.011,0.0094,0.0157,0.0041,0.0116,0.0119,0.0075,0.0255,0.0178,0.0324,0.0264,0.0268,0.0271,0,0.0064,0.0082,0.0168,0.0198,0.0214,0.0252,0.033,0.0361,0.0417,0.0428,0.0473,0.0441,0.0512,0.0376,0.0449,0.0383,0.0346,0.0317,0.0322,0.0242,0.0115,0.0197,0.0372,0.0065,0.031,0.0307,0.0304,0,0.0205,0.0251,0.0325,0.0331,0.0344,0.0398,0.0422,0.0469,0.0535,0.0627,0.0703,0.074,0.0796,0.0768,0.0675,0.0589,0.0755,0.0626,0.055,0.0545,0.0481,0.0462,0.039,0.0709,0.0708,0.0708,0.0707,0,0.0341,0.0406,0.0401,0.0439,0.0558,0.053,0.0672,0.0695,0.0788,0.0908,0.0869,0.0985,0.09,0.0944,0.0823,0.0797,0.0882,0.0639,0.0615,0.053,0.0513,0.0238,0.0091,0.0714,0.0713,0.0711,0.071,0,0.0468,0.0463,0.0549,0.059,0.0618,0.0704,0.0797,0.0896,0.0969,0.1134,0.118,0.1239,0.1293,0.1197,0.1182,0.1014,0.0826,0.0924,0.0823,0.0784,0.0371,0.0237,0.0254,0.0149,0.0888,0.0888,0.0888,0,0.053,0.0584,0.0657,0.0708,0.0728,0.0838,0.0912,0.0984,0.109,0.1283,0.1385,0.1495,0.1575,0.1544,0.1301,0.1157,0.0887,0.0939,0.0744,0.0403,0.0237,0.015,0.0053,0.0727,0.0726,0.0725,0.0724,0,0.0632,0.0658,0.0708,0.0813,0.09,0.1009,0.1127,0.1234,0.1342,0.1496,0.1697,0.1794,0.1756,0.1609,0.1385,0.1204,0.071,0.091,0.0606,0.0176,0.0038,-0.0095,0.0536,0.0715,0.0716,0.0717,0.0717,0.0718,0.0693,0.0749,0.0806,0.091,0.1015,0.1153,0.125,0.1388,0.1575,0.1801,0.1899,0.2091,0.1836,0.1532,0.1233,0.0596,0.066,0.034,0.0235,0.02,0.0013,0.0621,0.0723,0.0724,0.0724,0.0725,0.0726,0,0.0735,0.0786,0.0889,0.1007,0.1129,0.1178,0.1365,0.1472,0.1677,0.1943,0.2129,0.2178,0.1744,0.1288,0.0512,0.0007,-0.0183,-0.0284,-0.0467,-0.0512,0.0067,-0.0041,-0.0159,-0.0159,-0.0158,-0.0158,-0.0158,-0.0157,0.075,0.0828,0.088,0.1066,0.1162,0.1322,0.1422,0.1605,0.1817,0.2148,0.2351,0.2508,0.2177,0.0688,-0.0422,-0.0691,-0.1036,-0.1087,-0.1209,-0.0931,-0.0884,-0.084,-0.098,-0.1293,-0.1294,-0.1787,-0.1793,-0.1797]}],[{"header":{"parameterUnit":"m.s-1","parameterCategory":2,"la1":30.2991,"la2":30.254,"lo1":-89.0895,"lo2":-89.0444,"dy":0.0017,"dx":0.0017,"nx":28,"ny":28,"refTime":"2023-07-29T09:00:00:Z","depth":"2","parameterNumber":2,"parameterNumberName":"U-component_of_CURRENTS"},"data":[0,0,0,0,0,0,0,0,0,0,0,0,0,0,0,0,0,0,0,0,0,0,0,0,0,0,0,0,0,0,0,0,0,0,0,0,0,0,0,0,0,0,0,0,0,0,0,0,0,0,0,0,0,0,0,0,0,0,0.1346,0.1346,0,0.1376,0.1377,0.1377,0.1379,0.1379,0.1378,0.1378,0.145,0.1452,0.1454,0,0,0,0,0,0,0,0,0,0,0,0,0,0.1284,0.1285,0.1346,0.1346,0.1347,0.1376,0.1377,0.1377,0.1379,0.1379,0.1378,0.1378,0.1449,0.1452,0.1454,0,0,0,0,0,0,0,0,0,0,0,0,0,0.1312,0.1285,0.1346,0.1352,0.1352,0.1376,0.1377,0.1377,0.1379,0.1379,0.1378,0.1378,0.1448,0.1451,0.1455,0.1485,0,0,0.1465,0.1466,0,0,0,0,0,0,0,0,0.131,0.1314,0.135,0.1351,0.1352,0.1374,0.1381,0.1415,0.1379,0.1369,0.1378,0.1377,0.1429,0.1434,0.1439,0.1488,0.1491,0.1465,0.1467,0.1468,0.1469,0,0,0,0,0,0,0,0.1308,0.1313,0.1358,0.1351,0.1352,0.1351,0.1354,0.1387,0.1401,0.1369,0.137,0.1374,0.1429,0.1436,0.1441,0.1492,0.1465,0.1468,0.147,0.1471,0.1718,0.1723,0,0,0,0,0,0,0.1306,0.1311,0.1357,0.1359,0.133,0.1352,0.1356,0.1367,0.14,0.1405,0.1374,0.1374,0.1431,0.1437,0.1444,0.1602,0.1468,0.1472,0.1473,0.1714,0.1719,0.1724,0,0,0,0,0,0,0.1305,0.131,0.1356,0.1335,0.1341,0.1354,0.1366,0.1368,0.1392,0.1403,0.1408,0.1399,0.1431,0.1439,0.1524,0.16,0.1473,0.1476,0.1708,0.1715,0.1722,0.184,0,0,0,0,0,0,0.1303,0.131,0.1321,0.1335,0.1342,0.1396,0.1367,0.1369,0.1394,0.1395,0.1426,0.1431,0.1431,0.1519,0.1527,0.1602,0.1479,0.1703,0.1712,0.172,0.183,0.185,0.1867,0,0,0,0,0,0.1301,0.1325,0.1321,0.1327,0.1356,0.1398,0.1402,0.1408,0.1396,0.1425,0.1462,0.1431,0.1579,0.1525,0.1533,0.1611,0.1698,0.1709,0.1719,0.1822,0.1846,0.1867,0,0,0,0,0,0,0.1301,0.1327,0.1324,0.1353,0.1383,0.1399,0.1421,0.1423,0.1471,0.1478,0.1481,0.1491,0.1597,0.1594,0.1534,0.1713,0.1638,0.165,0.1714,0.1736,0.1754,0.1759,0.1481,0,0,0,0,0,0.1306,0.1334,0.1356,0.1382,0.1398,0.1412,0.1429,0.1441,0.1478,0.1497,0.1525,0.1574,0.1644,0.1679,0.1729,0.1818,0.1801,0.188,0.1899,0.1914,0.1928,0.1985,0.2008,0.1758,0.1758,0.1758,0,0,0.1311,0.1331,0.1344,0.1385,0.1403,0.1458,0.1422,0.1466,0.1531,0.15,0.1603,0.1636,0.1684,0.1794,0.1841,0.1801,0.1975,0.1927,0.1939,0.1946,0.1998,0.2021,0.2042,0.1765,0.1764,0.1763,0,0,0.1349,0.1357,0.1397,0.1433,0.1477,0.1498,0.1518,0.156,0.1597,0.1689,0.1705,0.1788,0.1869,0.1935,0.1974,0.2126,0.207,0.2145,0.2241,0.2296,0.2316,0.2333,0.2323,0.2338,0.2154,0.2154,0.2155,0,0.1349,0.1407,0.1417,0.1475,0.1513,0.1525,0.1589,0.1642,0.1713,0.1756,0.1742,0.1904,0.1943,0.2092,0.216,0.2167,0.216,0.2144,0.2316,0.2333,0.2348,0.2334,0.2349,0.2161,0.2161,0.216,0.2159,0,0.1427,0.1476,0.1507,0.1586,0.1633,0.169,0.1757,0.1822,0.1857,0.1897,0.2034,0.2098,0.2186,0.2233,0.2248,0.2403,0.2348,0.2326,0.2246,0.238,0.2357,0.237,0.2171,0.2169,0.2167,0.2165,0,0,0.142,0.1535,0.155,0.1591,0.1696,0.1732,0.1863,0.1962,0.2019,0.2117,0.2207,0.2367,0.2371,0.2421,0.2457,0.2528,0.2638,0.2488,0.2487,0.2453,0.2717,0.2566,0.2565,0.2641,0.2644,0.2647,0.2646,0,0.1476,0.1583,0.1646,0.1756,0.1808,0.1878,0.198,0.2074,0.2143,0.2234,0.2335,0.2427,0.2454,0.2494,0.2585,0.2627,0.2684,0.2637,0.2614,0.2613,0.2444,0.2581,0.2454,0.2433,0.2659,0.2661,0.2663,0,0.1532,0.1596,0.1699,0.1811,0.1841,0.1913,0.2038,0.2134,0.2273,0.2324,0.2443,0.2495,0.2659,0.2631,0.2782,0.2748,0.2756,0.277,0.2769,0.2598,0.249,0.2345,0.2449,0.2685,0.2683,0.2681,0.268,0,0.1485,0.1631,0.1702,0.1745,0.1878,0.194,0.202,0.215,0.2222,0.2374,0.2423,0.2594,0.267,0.2753,0.2801,0.2804,0.29,0.2891,0.2756,0.2742,0.2614,0.2582,0.2982,0.2982,0.2982,0.2982,0.2982,0,0.1496,0.1549,0.1678,0.1707,0.1783,0.19,0.1987,0.2081,0.2222,0.2301,0.2454,0.2539,0.271,0.278,0.2818,0.2816,0.2909,0.2797,0.2756,0.2648,0.2621,0.2823,0.2804,0.2982,0.2982,0.2982,0.2982,0,0.14,0.1498,0.1561,0.1702,0.1747,0.1786,0.1939,0.1999,0.2146,0.226,0.2316,0.2519,0.262,0.2712,0.282,0.2805,0.2824,0.2781,0.2606,0.2546,0.2625,0.2614,0.2675,0.267,0.2666,0.2662,0.2659,0,0.1345,0.1372,0.1502,0.1534,0.1589,0.1683,0.1746,0.1922,0.1999,0.2231,0.2277,0.2432,0.2522,0.2598,0.2615,0.2621,0.2696,0.2464,0.2469,0.2652,0.2607,0.2601,0.2595,0.2343,0.2337,0.2333,0.233,0,0.1222,0.1269,0.1319,0.1393,0.1456,0.1539,0.1658,0.1708,0.1925,0.2032,0.2178,0.2275,0.2388,0.238,0.2374,0.2358,0.2464,0.2372,0.2652,0.2419,0.2334,0.229,0.2297,0.2292,0.2296,0.2298,0.23,0.2302,0.1101,0.1105,0.1186,0.1249,0.1319,0.1397,0.1444,0.1581,0.1686,0.1853,0.1995,0.2093,0.2169,0.2114,0.2075,0.2063,0.2206,0.2161,0.2177,0.2198,0.2139,0.205,0.1941,0.1942,0.1944,0.1945,0.1946,0,0.0968,0.1018,0.1054,0.114,0.1179,0.128,0.1391,0.1436,0.1528,0.167,0.1786,0.1697,0.1745,0.1827,0.1778,0.1772,0.1799,0.1709,0.1773,0.1811,0.1845,0.1771,0.1473,0.1472,0.147,0.1468,0,0,0.09,0.091,0.0957,0.1,0.1071,0.112,0.1174,0.1239,0.1336,0.1364,0.1425,0.1604,0.1746,0.1555,0.1562,0.1529,0.1647,0.1471,0.1855,0.1966,0.1997,0.2113,0.2043,0,0,0,0,0]},{"header":{"parameterUnit":"m.s-1","parameterCategory":2,"la1":30.2991,"la2":30.254,"lo1":-89.0895,"lo2":-89.0444,"dy":0.0017,"dx":0.0017,"nx":28,"ny":28,"refTime":"2023-07-29T09:00:00:Z","depth":"2","parameterNumber":3,"parameterNumberName":"V-component_of_CURRENTS"},"data":[0,0,0,0,0,0,0,0,0,0,0,0,0,0,0,0,0,0,0,0,0,0,0,0,0,0,0,0,0,0,0,0,0,0,0,0,0,0,0,0,0,0,0,0,0,0,0,0,0,0,0,0,0,0,0,0,0,0,-0.0375,-0.0375,0,-0.0361,-0.0361,-0.0361,-0.036,-0.036,-0.0361,-0.0361,-0.0322,-0.0321,-0.032,0,0,0,0,0,0,0,0,0,0,0,0,0,-0.0398,-0.0398,-0.0375,-0.0375,-0.0375,-0.0361,-0.0361,-0.0361,-0.036,-0.036,-0.0361,-0.0361,-0.0323,-0.0321,-0.032,0,0,0,0,0,0,0,0,0,0,0,0,0,-0.0386,-0.0398,-0.0375,-0.0373,-0.0373,-0.0362,-0.0361,-0.0361,-0.036,-0.036,-0.0361,-0.0361,-0.0323,-0.0322,-0.032,-0.0301,0,0,-0.0314,-0.0313,0,0,0,0,0,0,0,0,-0.0387,-0.0385,-0.0374,-0.0374,-0.0373,-0.0364,-0.0355,-0.034,-0.036,-0.0364,-0.0361,-0.0361,-0.0334,-0.0331,-0.0327,-0.03,-0.0298,-0.0314,-0.0313,-0.0312,-0.0311,0,0,0,0,0,0,0,-0.0388,-0.0386,-0.0369,-0.0374,-0.0373,-0.0373,-0.0371,-0.0353,-0.0346,-0.0364,-0.0364,-0.0364,-0.0334,-0.0329,-0.0326,-0.0297,-0.0314,-0.0312,-0.0311,-0.031,-0.0241,-0.024,0,0,0,0,0,0,-0.0391,-0.0386,-0.0369,-0.0368,-0.0382,-0.0372,-0.0371,-0.0366,-0.0347,-0.0345,-0.0363,-0.0364,-0.0332,-0.0329,-0.0325,-0.0252,-0.0312,-0.031,-0.0309,-0.0242,-0.0241,-0.024,0,0,0,0,0,0,-0.0391,-0.0389,-0.037,-0.0378,-0.0376,-0.0372,-0.0366,-0.0365,-0.0359,-0.0347,-0.0345,-0.0358,-0.0332,-0.0328,-0.0303,-0.0252,-0.0309,-0.0308,-0.0243,-0.0241,-0.024,-0.0138,0,0,0,0,0,0,-0.0392,-0.0389,-0.0385,-0.0378,-0.0375,-0.0347,-0.0366,-0.0365,-0.0359,-0.0359,-0.0341,-0.0338,-0.0332,-0.0305,-0.0301,-0.0251,-0.0306,-0.0243,-0.0242,-0.0241,-0.0142,-0.0133,-0.0126,0,0,0,0,0,-0.0392,-0.0374,-0.0385,-0.0383,-0.0371,-0.0346,-0.0343,-0.0342,-0.0358,-0.0341,-0.0339,-0.0339,-0.0294,-0.0303,-0.0298,-0.0246,-0.0244,-0.0242,-0.0241,-0.0146,-0.0135,-0.0126,0,0,0,0,0,0,-0.0372,-0.0372,-0.0384,-0.0365,-0.0355,-0.0346,-0.0329,-0.034,-0.0326,-0.0325,-0.0327,-0.0323,-0.0283,-0.029,-0.0301,-0.0228,-0.0269,-0.0267,-0.0199,-0.0189,-0.0181,-0.0152,-0.0305,0,0,0,0,0,-0.0371,-0.036,-0.0359,-0.0341,-0.0336,-0.0337,-0.033,-0.0328,-0.0317,-0.0312,-0.0301,-0.0292,-0.0272,-0.0253,-0.024,-0.0196,-0.025,-0.0164,-0.0156,-0.0148,-0.0124,-0.0186,-0.0181,-0.0235,-0.0235,-0.0235,0,0,-0.0356,-0.0355,-0.0349,-0.0337,-0.0329,-0.0291,-0.0331,-0.0307,-0.0266,-0.0308,-0.0249,-0.0263,-0.0259,-0.0208,-0.019,-0.0204,-0.0168,-0.0146,-0.014,-0.0119,-0.0184,-0.0178,-0.0174,-0.0233,-0.0234,-0.0234,0,0,-0.0297,-0.0322,-0.0282,-0.027,-0.0256,-0.0257,-0.025,-0.0237,-0.0222,-0.0181,-0.0201,-0.0192,-0.0154,-0.0139,-0.0128,-0.0072,-0.0131,-0.007,0.0014,-0.0046,-0.0041,-0.0038,-0.0127,-0.0132,-0.0055,-0.0055,-0.0055,0,-0.0277,-0.0232,-0.0264,-0.0216,-0.0195,-0.0237,-0.0178,-0.0165,-0.0142,-0.0121,-0.0145,-0.0111,-0.0114,-0.0054,-0.003,-0.0047,-0.0109,-0.0017,-0.0034,-0.0032,-0.0031,-0.0122,-0.0129,-0.005,-0.005,-0.0051,-0.0051,0,-0.0182,-0.0146,-0.0119,-0.0078,-0.0063,-0.0022,-0.0017,0.0007,0.0002,0.0007,0.0049,0.003,0.0054,0.0051,0.0038,0.0064,0.0005,-0.0026,-0.0055,-0.0019,-0.0118,-0.0128,-0.0042,-0.0044,-0.0046,-0.0047,0,0,-0.0119,-0.0063,-0.0048,-0.001,0.0011,0.0037,0.01,0.0143,0.0182,0.0186,0.0235,0.0255,0.0219,0.0227,0.0196,0.0155,0.01,0.0085,0.0079,0.0004,-0.006,-0.0124,-0.0142,0.0061,0.0061,0.006,-0.0143,0,-0.0025,0.0081,0.0087,0.0188,0.0236,0.0221,0.0282,0.0306,0.0309,0.034,0.0313,0.0341,0.0295,0.0302,0.0258,0.0141,0.0084,0.0157,-0.0089,-0.0097,-0.0151,-0.015,-0.0098,-0.0275,-0.0153,-0.0155,-0.0156,0,0.0077,0.0131,0.0243,0.0313,0.0335,0.0389,0.0447,0.0498,0.0517,0.0517,0.0523,0.0483,0.0461,0.0393,0.0225,0.0269,0.0128,0.0017,0.0005,-0.0087,-0.0176,-0.0288,-0.0298,-0.0173,-0.0172,-0.0171,-0.0169,0,0.0127,0.0242,0.0328,0.0354,0.0425,0.0485,0.0527,0.056,0.0604,0.0628,0.0635,0.059,0.0558,0.0403,0.0187,0.0205,-0.0054,-0.0066,-0.0262,-0.0271,-0.0287,-0.0296,-0.0198,-0.0198,-0.0197,-0.0197,-0.0196,0,0.021,0.0283,0.0366,0.0411,0.0519,0.0552,0.0651,0.0685,0.0728,0.0768,0.0733,0.0722,0.0556,0.0393,0.02,-0.0073,-0.0052,-0.0246,-0.0318,-0.0255,-0.0258,-0.0208,-0.0206,-0.0204,-0.0203,-0.0201,-0.02,0,0.0244,0.0298,0.0399,0.0503,0.0543,0.0621,0.0725,0.0789,0.0821,0.0868,0.0883,0.0804,0.0586,0.0364,0.0074,-0.0066,-0.0318,-0.0429,-0.0358,-0.0415,-0.0497,-0.0488,-0.0635,-0.0638,-0.0642,-0.0644,-0.0646,0,0.027,0.0328,0.0452,0.0514,0.0571,0.0683,0.0759,0.0831,0.0885,0.0899,0.0915,0.0755,0.0605,0.0158,-0.0112,-0.0464,-0.0474,-0.0614,-0.0547,-0.0482,-0.0537,-0.0523,-0.051,-0.0552,-0.0553,-0.0554,-0.0555,0,0.0318,0.0359,0.0434,0.0559,0.066,0.0764,0.0877,0.0921,0.099,0.0994,0.0947,0.083,0.0453,0.012,-0.0314,-0.0519,-0.0538,-0.0646,-0.0611,-0.0438,-0.0417,-0.0467,-0.0454,-0.0564,-0.0563,-0.0562,-0.0562,-0.0562,0.035,0.0405,0.0505,0.0621,0.073,0.0843,0.0931,0.0995,0.1047,0.1046,0.0932,0.0762,0.0442,-0.0132,-0.0432,-0.0668,-0.0679,-0.0733,-0.0724,-0.0715,-0.0658,-0.0642,-0.0823,-0.0824,-0.0824,-0.0825,-0.0825,0,0.04,0.0464,0.0565,0.0709,0.0821,0.0891,0.1013,0.1066,0.1104,0.1029,0.0938,0.0585,0.0215,-0.011,-0.0465,-0.0718,-0.0673,-0.0779,-0.0652,-0.0644,-0.0637,-0.0569,-0.0714,-0.0714,-0.0714,-0.0714,0,0,0.0436,0.053,0.0578,0.0765,0.0879,0.1053,0.1131,0.1162,0.1139,0.0982,0.0869,0.0652,0.0265,0.0022,-0.0319,-0.0491,-0.0494,-0.0521,-0.0592,-0.0396,-0.0383,-0.0607,-0.0495,0,0,0,0,0]}],[{"header":{"parameterUnit":"m.s-1","parameterCategory":2,"la1":30.2991,"la2":30.254,"lo1":-89.0895,"lo2":-89.0444,"dy":0.0017,"dx":0.0017,"nx":28,"ny":28,"refTime":"2023-07-29T09:00:00:Z","depth":"4","parameterNumber":2,"parameterNumberName":"U-component_of_CURRENTS"},"data":[0,0,0,0,0,0,0,0,0,0,0,0,0,0,0,0,0,0,0,0,0,0,0,0,0,0,0,0,0,0,0,0,0,0,0,0,0,0,0,0,0,0,0,0,0,0,0,0,0,0,0,0,0,0,0,0,0,0,0.0651,0.0652,0,0.0703,0.0703,0.0704,0.0761,0.0762,0.0763,0.0764,0.0848,0.085,0.0851,0,0,0,0,0,0,0,0,0,0,0,0,0,0.0555,0.0557,0.0651,0.0652,0.0653,0.0703,0.0703,0.0704,0.0761,0.0762,0.0763,0.0764,0.0848,0.0849,0.0851,0,0,0,0,0,0,0,0,0,0,0,0,0,0.0601,0.0558,0.0651,0.0687,0.069,0.0703,0.0704,0.0704,0.0761,0.0762,0.0763,0.0765,0.0847,0.0849,0.0851,0.0841,0,0,0.0858,0.0859,0,0,0,0,0,0,0,0,0.0599,0.0605,0.0681,0.0684,0.0688,0.0727,0.0701,0.0752,0.0761,0.0735,0.0764,0.0765,0.0809,0.0815,0.0822,0.0845,0.0849,0.0859,0.086,0.0861,0.0862,0,0,0,0,0,0,0,0.0596,0.0603,0.0672,0.0681,0.0686,0.0684,0.0692,0.071,0.0765,0.0737,0.0741,0.0746,0.0812,0.082,0.0824,0.085,0.0858,0.086,0.0862,0.0863,0.0915,0.0915,0,0,0,0,0,0,0.059,0.06,0.067,0.0674,0.0645,0.0685,0.0694,0.0713,0.0765,0.0773,0.0745,0.0748,0.0815,0.0822,0.0828,0.0887,0.0861,0.0863,0.0864,0.0915,0.0915,0.0916,0,0,0,0,0,0,0.0588,0.0596,0.0668,0.0637,0.0646,0.0686,0.0706,0.0714,0.0753,0.077,0.078,0.078,0.0816,0.0824,0.0869,0.0888,0.0864,0.0866,0.0915,0.0915,0.0915,0.0961,0,0,0,0,0,0,0.0585,0.0596,0.0617,0.0637,0.0647,0.069,0.0705,0.0714,0.0752,0.0758,0.0803,0.081,0.0818,0.0865,0.0871,0.089,0.0868,0.0915,0.0915,0.0915,0.0959,0.0962,0.0965,0,0,0,0,0,0.0582,0.0602,0.0618,0.0627,0.0673,0.069,0.0696,0.0727,0.0752,0.0768,0.0804,0.081,0.0869,0.0868,0.0874,0.0895,0.0915,0.0915,0.0915,0.0958,0.0962,0.0965,0,0,0,0,0,0,0.0572,0.061,0.0628,0.0661,0.0681,0.07,0.0723,0.0742,0.0782,0.0799,0.0822,0.0831,0.0871,0.0873,0.087,0.0905,0.0889,0.089,0.0919,0.0922,0.0925,0.0929,0.087,0,0,0,0,0,0.0578,0.0606,0.0634,0.066,0.0677,0.0706,0.0723,0.0741,0.0772,0.0793,0.0826,0.0852,0.0869,0.0891,0.0904,0.0933,0.0928,0.0944,0.0947,0.095,0.0954,0.0955,0.0959,0.0916,0.0916,0.0916,0,0,0.0581,0.0605,0.0623,0.066,0.0685,0.071,0.0721,0.0752,0.0779,0.0794,0.0856,0.0869,0.0878,0.0908,0.0925,0.092,0.0961,0.095,0.0953,0.0955,0.0956,0.096,0.0964,0.0916,0.0916,0.0916,0,0,0.0586,0.0627,0.065,0.0673,0.0709,0.0726,0.0742,0.078,0.0809,0.0855,0.0867,0.0893,0.0937,0.0939,0.0946,0.097,0.0974,0.0976,0.1004,0.1006,0.101,0.1013,0.1021,0.1025,0.0981,0.0981,0.0982,0,0.0589,0.0626,0.0656,0.0683,0.0709,0.0739,0.0767,0.0794,0.0842,0.0864,0.0884,0.0935,0.0947,0.0968,0.0979,0.0979,0.0986,0.0995,0.1011,0.1014,0.1017,0.1024,0.1028,0.0984,0.0983,0.0983,0.0983,0,0.0605,0.0647,0.0664,0.0714,0.0741,0.077,0.0808,0.0844,0.0888,0.091,0.0956,0.0972,0.1002,0.1003,0.1009,0.1029,0.1031,0.1014,0.1007,0.1025,0.1031,0.1034,0.0987,0.0986,0.0985,0.0985,0,0,0.058,0.066,0.067,0.0701,0.0764,0.0782,0.0835,0.0878,0.0916,0.0961,0.1003,0.103,0.1045,0.1051,0.1053,0.1057,0.1086,0.1056,0.1055,0.1073,0.1106,0.1096,0.1098,0.1083,0.1083,0.1084,0.1106,0,0.0586,0.0639,0.0681,0.0736,0.077,0.0821,0.0865,0.0908,0.0956,0.1003,0.102,0.1061,0.1061,0.1085,0.109,0.1088,0.1095,0.1082,0.1078,0.1078,0.1074,0.1101,0.1085,0.1108,0.1108,0.1109,0.1109,0,0.0586,0.0624,0.0681,0.0756,0.0777,0.0816,0.0891,0.0933,0.0997,0.1035,0.1078,0.1101,0.113,0.112,0.1136,0.1135,0.113,0.112,0.112,0.1097,0.1073,0.1082,0.1114,0.1114,0.1114,0.1113,0.1113,0,0.0544,0.0623,0.0669,0.0697,0.0783,0.0823,0.0872,0.0945,0.0989,0.1061,0.1102,0.1136,0.1168,0.1165,0.118,0.1163,0.1191,0.1155,0.1135,0.1134,0.1116,0.1112,0.1154,0.1154,0.1154,0.1154,0.1154,0,0.0531,0.0567,0.0658,0.0683,0.0738,0.0809,0.0873,0.0929,0.101,0.1059,0.1119,0.1157,0.1184,0.1212,0.1199,0.1197,0.121,0.115,0.1142,0.1135,0.1132,0.1119,0.1114,0.1155,0.1155,0.1155,0.1155,0,0.0485,0.0545,0.0595,0.069,0.0722,0.0764,0.0876,0.0918,0.1007,0.1074,0.1104,0.1188,0.1232,0.1256,0.1259,0.1227,0.1214,0.1204,0.1222,0.1213,0.1147,0.1144,0.1169,0.1169,0.1169,0.1169,0.1169,0,0.0471,0.0492,0.0586,0.0619,0.0669,0.0745,0.0794,0.0902,0.0951,0.1082,0.1102,0.1193,0.1237,0.1238,0.1263,0.1257,0.1237,0.1225,0.1159,0.116,0.1149,0.1147,0.1145,0.1169,0.1169,0.1169,0.1169,0,0.0435,0.0469,0.0511,0.0578,0.0636,0.0694,0.0779,0.0813,0.0934,0.1016,0.1088,0.1134,0.1191,0.1213,0.1242,0.1222,0.1228,0.1223,0.1221,0.1159,0.1159,0.1149,0.1146,0.1168,0.1168,0.1168,0.1168,0,0.0405,0.0419,0.0476,0.0533,0.0597,0.0642,0.0691,0.0767,0.0834,0.0983,0.1001,0.1098,0.1175,0.1197,0.1212,0.1219,0.1182,0.1124,0.1127,0.1128,0.1108,0.1101,0.1095,0,0,0,0,0,0.0374,0.0387,0.043,0.049,0.0551,0.0591,0.0682,0.0734,0.0847,0.0876,0.0946,0.0999,0.1064,0.1111,0.1108,0.1185,0.1177,0.1176,0.1109,0.1167,0.1167,0.115,0,0,0,0,0,0,0.0351,0.0384,0.0408,0.045,0.0481,0.0542,0.0596,0.0668,0.0698,0.0813,0.0848,0.0941,0.1007,0.1049,0.1085,0.1101,0.1042,0.124,0.1238,0.1166,0.1167,0.1167,0.115,0,0,0,0,0]},{"header":{"parameterUnit":"m.s-1","parameterCategory":2,"la1":30.2991,"la2":30.254,"lo1":-89.0895,"lo2":-89.0444,"dy":0.0017,"dx":0.0017,"nx":28,"ny":28,"refTime":"2023-07-29T09:00:00:Z","depth":"4","parameterNumber":3,"parameterNumberName":"V-component_of_CURRENTS"},"data":[0,0,0,0,0,0,0,0,0,0,0,0,0,0,0,0,0,0,0,0,0,0,0,0,0,0,0,0,0,0,0,0,0,0,0,0,0,0,0,0,0,0,0,0,0,0,0,0,0,0,0,0,0,0,0,0,0,0,0.003,0.0029,0,-0.0038,-0.0038,-0.0039,-0.0084,-0.0084,-0.0084,-0.0085,-0.0188,-0.019,-0.0193,0,0,0,0,0,0,0,0,0,0,0,0,0,0.0105,0.0104,0.003,0.0029,0.0028,-0.0037,-0.0038,-0.0039,-0.0084,-0.0084,-0.0084,-0.0085,-0.0187,-0.019,-0.0193,0,0,0,0,0,0,0,0,0,0,0,0,0,0.0058,0.0104,0.003,-0.0001,-0.0005,-0.0037,-0.0039,-0.004,-0.0084,-0.0084,-0.0085,-0.0085,-0.0186,-0.019,-0.0194,-0.021,0,0,-0.0205,-0.0207,0,0,0,0,0,0,0,0,0.0061,0.0055,0.0004,0.0001,-0.0003,-0.0052,-0.005,-0.0098,-0.0084,-0.0055,-0.0085,-0.0085,-0.0145,-0.0152,-0.0165,-0.0215,-0.0219,-0.0205,-0.0208,-0.0209,-0.021,0,0,0,0,0,0,0,0.0064,0.0058,0.0002,0.0003,-0.0001,-0.0017,-0.0024,-0.0059,-0.0098,-0.0057,-0.006,-0.0067,-0.0147,-0.0161,-0.0168,-0.0221,-0.0205,-0.0209,-0.0211,-0.0213,-0.0337,-0.0338,0,0,0,0,0,0,0.0075,0.0061,0.0004,0.0,0.0029,-0.0018,-0.0026,-0.0037,-0.0097,-0.0106,-0.0066,-0.0068,-0.0154,-0.0163,-0.0171,-0.0248,-0.0209,-0.0213,-0.0215,-0.0336,-0.0338,-0.0339,0,0,0,0,0,0,0.0077,0.007,0.0007,0.003,0.0021,-0.0019,-0.0031,-0.0038,-0.006,-0.0104,-0.0114,-0.0082,-0.0155,-0.0166,-0.0224,-0.025,-0.0215,-0.0218,-0.0335,-0.0337,-0.0338,-0.0367,0,0,0,0,0,0,0.0079,0.0071,0.0065,0.0031,0.002,-0.0019,-0.003,-0.0039,-0.0063,-0.0067,-0.0121,-0.013,-0.0156,-0.0218,-0.0227,-0.0255,-0.0221,-0.0334,-0.0336,-0.0338,-0.0364,-0.0369,-0.0373,0,0,0,0,0,0.0082,0.0072,0.0065,0.0059,0.0014,-0.0019,-0.0027,-0.0056,-0.0063,-0.0077,-0.0121,-0.0129,-0.0236,-0.0222,-0.0233,-0.0262,-0.0333,-0.0335,-0.0337,-0.0362,-0.0368,-0.0373,0,0,0,0,0,0,0.0097,0.0066,0.0058,0.0038,0.001,-0.0027,-0.0043,-0.0058,-0.0102,-0.011,-0.0148,-0.0161,-0.0221,-0.0235,-0.0218,-0.0302,-0.0283,-0.0288,-0.0299,-0.0304,-0.0308,-0.0308,-0.0224,0,0,0,0,0,0.0101,0.0086,0.0054,0.0038,0.0024,-0.0008,-0.0025,-0.0045,-0.0085,-0.0104,-0.0145,-0.0189,-0.0237,-0.0265,-0.0305,-0.0352,-0.0363,-0.0375,-0.0379,-0.0383,-0.0389,-0.0431,-0.044,-0.0346,-0.0346,-0.0346,0,0,0.0101,0.0084,0.0074,0.0041,0.0017,-0.0016,-0.002,-0.005,-0.0084,-0.0109,-0.0173,-0.0207,-0.0253,-0.0312,-0.0339,-0.0329,-0.0414,-0.0386,-0.0389,-0.0393,-0.0434,-0.0444,-0.0452,-0.0348,-0.0348,-0.0347,0,0,0.0086,0.008,0.0055,0.0034,-0.0001,-0.0021,-0.0029,-0.0074,-0.01,-0.0159,-0.0189,-0.0241,-0.0308,-0.0351,-0.038,-0.0429,-0.0435,-0.0436,-0.0462,-0.0502,-0.051,-0.0518,-0.0537,-0.0546,-0.0438,-0.0438,-0.0438,0,0.0083,0.0052,0.0044,0.0012,-0.001,-0.0025,-0.0061,-0.0091,-0.015,-0.0176,-0.0184,-0.0294,-0.0331,-0.0407,-0.043,-0.0441,-0.0455,-0.044,-0.0508,-0.0516,-0.0523,-0.0541,-0.055,-0.044,-0.044,-0.044,-0.044,0,0.0041,0.002,0.0004,-0.004,-0.0061,-0.0091,-0.0127,-0.0155,-0.0184,-0.0218,-0.0293,-0.0347,-0.0409,-0.0431,-0.0453,-0.0522,-0.0512,-0.0508,-0.0494,-0.0534,-0.055,-0.0559,-0.0442,-0.0442,-0.0441,-0.0441,0,0,0.0008,-0.002,-0.003,-0.0042,-0.0089,-0.0107,-0.0159,-0.0209,-0.0236,-0.0298,-0.0349,-0.044,-0.0456,-0.0489,-0.0518,-0.056,-0.0623,-0.0558,-0.0559,-0.0575,-0.0701,-0.0636,-0.0639,-0.0632,-0.0634,-0.0635,-0.069,0,-0.0032,-0.0073,-0.009,-0.0133,-0.0154,-0.0174,-0.0214,-0.0255,-0.0293,-0.0341,-0.04,-0.0457,-0.0482,-0.0508,-0.056,-0.0603,-0.065,-0.0608,-0.0663,-0.0664,-0.06,-0.0649,-0.0641,-0.0697,-0.0699,-0.0701,-0.0702,0,-0.0089,-0.0099,-0.0138,-0.0156,-0.017,-0.0199,-0.0242,-0.028,-0.0342,-0.0371,-0.0435,-0.0471,-0.0551,-0.0555,-0.0664,-0.0634,-0.0678,-0.0708,-0.0711,-0.0647,-0.0616,-0.0652,-0.0718,-0.0717,-0.0716,-0.0715,-0.0714,0,-0.0097,-0.0139,-0.0157,-0.0169,-0.0197,-0.0219,-0.0241,-0.0293,-0.031,-0.0385,-0.0399,-0.05,-0.0534,-0.0617,-0.0681,-0.068,-0.078,-0.0781,-0.0766,-0.0761,-0.0789,-0.0781,-0.0866,-0.0866,-0.0866,-0.0866,-0.0865,0,-0.0128,-0.0146,-0.0157,-0.0163,-0.0178,-0.0212,-0.0238,-0.027,-0.0312,-0.0322,-0.0408,-0.0426,-0.0551,-0.0614,-0.0687,-0.0745,-0.0787,-0.0782,-0.0779,-0.0798,-0.079,-0.0795,-0.0786,-0.0868,-0.0867,-0.0867,-0.0866,0,-0.0127,-0.0141,-0.0152,-0.0172,-0.0176,-0.0185,-0.0204,-0.0217,-0.0264,-0.0276,-0.0294,-0.0378,-0.0458,-0.0566,-0.0688,-0.0726,-0.0801,-0.0813,-0.0814,-0.0808,-0.0757,-0.0749,-0.0813,-0.0811,-0.081,-0.0808,-0.0807,0,-0.0124,-0.013,-0.0135,-0.0127,-0.0133,-0.0145,-0.0146,-0.0186,-0.0189,-0.023,-0.0226,-0.0309,-0.0369,-0.0483,-0.0613,-0.075,-0.0762,-0.08,-0.0803,-0.0765,-0.0756,-0.075,-0.0744,-0.0805,-0.0805,-0.0804,-0.0804,0,-0.0109,-0.0114,-0.011,-0.0088,-0.0083,-0.0075,-0.0079,-0.0067,-0.0102,-0.0138,-0.0145,-0.0221,-0.0305,-0.0435,-0.054,-0.064,-0.0778,-0.0786,-0.079,-0.0794,-0.0756,-0.0748,-0.0744,-0.0799,-0.08,-0.08,-0.0801,0,-0.0093,-0.0082,-0.0072,-0.005,-0.0035,-0.0011,-0.0018,-0.0012,-0.0017,-0.0054,-0.0051,-0.0161,-0.024,-0.0376,-0.0473,-0.0566,-0.0593,-0.0615,-0.0628,-0.0635,-0.0567,-0.0492,-0.0462,0,0,0,0,0,-0.008,-0.0061,-0.0035,-0.001,0.0011,0.0018,0.0027,0.0016,-0.0002,0.0019,-0.0012,-0.0083,-0.022,-0.0299,-0.0378,-0.0468,-0.0628,-0.0563,-0.0664,-0.0772,-0.0778,-0.0722,0,0,0,0,0,0,-0.0073,-0.005,-0.0029,0.0022,0.0049,0.007,0.0078,0.0067,0.0073,0.0047,-0.0027,-0.0078,-0.0226,-0.0166,-0.0369,-0.0404,-0.0471,-0.0644,-0.0645,-0.0769,-0.0774,-0.0778,-0.0723,0,0,0,0,0]}]]